{"data":{"norad_id":56452,"intl_designator":"2023-064E","name":"STARLINK-5986","alt_names":[],"object_type":"PAYLOAD","status":"ACTIVE","operator":null,"country":"US","launch_date":"2023-05-10","launch_site_code":"AFWTR","launch_vehicle":null,"mission":null,"orbit_class":"UNKNOWN","rcs_meters":null,"size_class":null,"mass_kg":null,"dimensions":null,"purposes":["comms"],"wikipedia_slug":null,"has_3d_model":false,"image_url":null,"decayed_at":null,"tle_current":{"epoch":"2026-05-24T20:53:53.128320Z","epoch_age_seconds":96691,"freshness":"FRESH","line1":"1 56452U 23064E   26144.87075380  .00000054  00000+0  12325-4 0  9997","line2":"2 56452  69.9987 312.5201 0002560 269.9921  90.0944 14.98329438166658","mean_motion":14.98329438,"eccentricity":0.000256,"inclination_deg":69.9987,"raan_deg":312.5201,"arg_perigee_deg":269.9921,"mean_anomaly_deg":90.0944,"bstar":1.2325e-5,"rev_number":16665,"period_min":96.107035173929,"perigee_km":570.2783790586,"apogee_km":573.83687870859,"semimajor_km":6950.1946288836,"source":"CELESTRAK","updated_at":"2026-05-25T13:38:18.066620Z"}}}